EHI
0 0 0 0 0 0 0 0 0 0 0 0 0 0 0 0 0 0 0 0 0 0 0 0 0 0 0 0 0 0 0 0 0 0 0 0 0 0 0 0 0 0 0 0
0 0 0 0 0 0 0 0 0 0 0 0 0 0 0 0 0 0 0 0 0 0 0 0 0 0 0 0 0 0 0 0 0 0 0 0 0 0 0 0 0 0 0 0
0 0 0 0 0 0 0 0 0 0 0 0 0 0 0 0 0 0 0 0 0 0 0 0 0 0 0 0 0 0 0 0 0 0 0 0 0 0 0 0 0 0 0 0
0 0 0 0 0 0 0 0 0 0 0 0 0 0 0 0 0 0 0 0 0 0 0 0 0 0 0 0 0 0 0 0 0 0 0 0 0 0 0 0 0 0 0 0
0 0 0 0 0 0 0 0 0 0 0 0 0 0 0 0 0 0 0 0 0 0 0 0 0 0 0 0 0 0 0 0 0 0 0 0 0 0 0 0 0 0 0 0
0 0 0 0 0 0 0 0 0 0 0 0 0 0 0 0 0 0 0 0 0 0 0 0 0 0 0 0 0 0 0 0 0 0 0 0 0 0 0 0 0 0 0 0
0 0 0 0 0 0 0 0 0 0 0 0 0 0 0 0 0 0 0 0 0 0 0 0 0 0 0 0 0 0 0 0 0 0 0 0 0 0 0 0 0 0 0 0
0 0 0 0 0 0 0 0 0 0 0 0 0 0 0 0 0 0 0 0 0 0 0 0 0 0 0 0 0 0 0 0 0 0 0 0 0 0 0 0 0 0 0 0
0 0 0 0 0 0 0 0 0 0 0 0 0 0 0 0 0 0 0 0 0 0 0 0 0 0 0 0 0 0 0 0 0 0 0 0 0 0 0 0 0 0 0 0
0 0 0 0 0 0 0 0 0 0 0 0 0 0 0 0 0 0 0 0 0 0 0 0 0 0 0 0 0 0 0 0 0 0 0 0 0 0 0 0 0 0 0 0
0 0 0 0 0 0 0 0 0 0 0 0 0 0 0 0 0 0 0 0 0 0 0 0 0 0 0 0 0 0 0 0 0 0 0 0 0 0 0 0 0 0 0 0
0 0 0 0 0 0 0 0 0 0 0 0 0 0 0 0 0 0 0 0 0 0 0 0 0 0 0 0 0 0 0 0 0 0 0 0 0 0 0 0 0 0 0 0
0 0 0 0 0 0 0 0 0 0 0 0 0 0 0 0 0 0 0 0 0 0 0 0 0 0 0 0 0 0 0 0 0 0 0 0 0 0 0 0 0 0 0 0
0 0 0 0 0 0 0 0 0 0 0 0 0 0 0 0 0 0 0 0 0 0 0 0 0 0 0 0 0 0 0 0 0 0 0 0 0 0 0 0 0 0 0 0
0 0 0 0 0 0 0 0 0 0 0 0 0 0 0 0 0 0 0 0 0 0 0 0 0 0 0 0 0 0 0 0 0 0 0 0 0 0 0 0 0 0 0 0
0 0 0 0 0 0 0 0 0 0 0 0 0 0 0 0 0 0 0 0 0 0 0 0 0 0 0 0 0 0 0 0 0 0 0 0 0 0 0 0 0 0 0 0
0 0 0 0 0 0 0 0 0 0 0 0 0 0 0 0 0 0 0 0 0 0 0 0 0 0 0 0 0 0 0 0 0 0 0 0 0 0 0 0 0 0 0 0
0 0 0 0 0 0 0 0 0 0 0 0 0 0 0 0 0 0 0 0 0 0 0 0 0 0 0 0 0 0 0 0 0 0 0 0 0 0 0 0 0 0 0 0
0 0 0 0 0 0 0 0 0 0 0 0 0 0 0 0 0 0 0 0 0 0 0 0 0 0 0 0 0 0 0 0 0 0 0 0 0 0 0 0 0 0 0 0
0 0 0 0 0 0 0 0 0 0 0 0 0 0 0 0 0 0 0 0 0 0 0 0 0 0 0 0 0 0 0 0 0 0 0 0 0 0 0 0 0 0 0 0
0 0 0 0 0 0 0 0 0 0 0 0 0 0 0 0 0 0 0 0 0 0 0 0 0 0 0 0 0 0 0 0 0 0 0 0 0 0 0 0 0 0 0 0
0 0 0 0 0 0 0 0 0 0 0 0 0 0 0 0 0 0 0 0 0 0 0 0 0 0 0 0 0 0 0 0 0 0 0 0 0 0 0 0 0 0 0 0
0 0 0 0 0 0 0 0 0 0 0 0 0 0 0 0 0 0 0 0 0 0 0 0 0 0 0 0 0 0 0 0 0 0 0 0 0 0 0 0 0 0 0 0
0 0 0 0 0 0 0 0 0 0 0 0 0 0 0 0 0 0 0 0 0 0 0 0 0 0 0 0 0 0 0 0 0 0 0 0 0 0 0 0 0 0 0 0
0 0 0 0 0 0 0 0 0 0 0 0 0 0 0 0 0 0 0 0 0 0 0 0 0 0 0 0 0 0 0 0 0 0 0 0 0 0 0 0 0 0 0 0
0 0 0 0 0 0 0 0 0 0 0 0 0 0 0 0 0 0 0 0 0 0 0 0 0 0 0 0 0 0 0 0 0 0 0 0 0 0 0 0 0 0 0 0
0 0 0 0 0 0 0 0 0 0 0 0 0 0 0 0 0 0 0 0 0 0 0 0 0 0 0 0 0 0 0 0 0 0 0 0 0 0 0 0 0 0 0 0
Wind_Speed
10 8 6 4 4 6 7 9 10 9 6 5 6 9 10 11 12 13 13 12 11 11 11 11 11 11 11 11 11 10 10 11 11 10 10 11 12 13 13 13 13 12 12 11
9 3 2 2 5 5 4 6 7 7 3 4 8 10 11 12 14 16 15 15 15 15 16 15 15 15 14 14 13 13 13 14 13 12 12 11 11 12 13 13 12 12 12 12
9 2 8 3 6 7 6 6 8 8 6 10 13 14 14 16 17 17 17 17 18 18 18 17 17 17 16 16 16 15 15 15 15 14 14 13 13 12 12 12 12 11 11 11
9 9 8 8 5 7 8 8 5 5 8 13 16 17 17 19 17 16 18 20 20 19 20 20 19 19 18 18 17 17 16 16 16 16 15 14 13 13 12 11 10 10 10 11
7 10 2 6 5 8 9 10 3 7 15 19 20 21 19 15 17 20 22 22 21 21 21 21 20 20 19 19 18 18 17 17 16 16 16 15 14 13 11 10 10 10 9 10
6 9 5 6 6 6 8 7 5 15 20 21 23 20 16 20 22 23 22 21 21 22 22 21 21 20 20 20 19 18 18 17 16 16 16 16 15 14 11 9 10 9 9 9
8 7 4 6 7 10 10 11 17 19 20 22 22 20 23 24 23 23 23 23 23 22 21 20 20 19 20 20 20 19 18 17 16 16 16 16 15 13 12 10 9 9 9 8
7 6 4 7 9 9 12 16 17 20 21 22 23 24 24 25 24 24 24 24 24 21 20 19 19 20 21 21 20 19 18 18 17 17 16 14 14 13 12 10 10 9 7 7
6 5 4 6 8 11 13 17 19 20 22 23 24 25 26 25 24 24 24 24 22 22 22 20 19 19 21 20 19 19 18 18 17 17 15 15 14 14 12 10 8 7 5 5
5 3 6 11 11 13 16 19 21 21 23 24 26 27 27 25 23 24 24 23 22 22 22 20 19 18 18 18 18 18 18 17 16 15 15 15 12 12 11 9 8 6 5 5
6 6 11 10 15 18 19 20 21 22 23 24 26 27 27 24 24 23 22 22 21 20 20 21 19 18 18 18 17 18 17 16 15 14 14 13 12 11 11 9 6 6 5 5
7 10 13 18 18 20 20 21 22 24 25 24 25 26 26 24 23 23 23 22 21 21 21 21 20 19 19 18 17 17 15 14 11 11 10 11 11 10 10 9 7 8 9 8
9 13 16 19 20 20 20 22 24 24 25 26 24 24 25 24 23 24 24 23 22 21 21 21 21 20 19 18 17 15 14 12 10 10 10 10 10 9 8 8 10 10 11 11
11 14 17 18 20 20 22 23 23 25 24 24 24 24 24 24 24 25 23 22 21 21 21 21 21 20 18 17 15 14 13 12 11 10 9 9 9 9 7 7 6 5 7 10
12 14 17 18 19 21 22 23 24 24 24 24 23 24 24 25 25 24 23 22 21 21 21 21 19 18 16 14 13 12 10 8 8 8 8 8 9 8 7 7 5 3 4 6
15 16 16 18 20 22 24 24 24 24 25 25 24 24 24 24 24 23 22 21 21 21 21 19 18 15 13 11 10 8 7 9 9 7 7 8 8 7 6 6 4 4 5 7
15 17 18 20 21 23 23 23 23 24 24 25 25 25 24 24 23 22 21 21 20 20 19 16 15 12 10 8 6 5 5 6 10 8 8 7 6 6 5 5 4 5 7 11
14 16 18 20 21 22 23 23 23 24 24 24 24 23 23 23 23 22 22 21 20 18 15 13 11 11 8 6 4 3 3 4 5 6 5 5 5 5 5 4 5 6 8 12
15 16 18 19 20 20 21 22 22 23 23 22 22 22 22 22 22 21 21 20 19 16 14 13 11 8 6 4 4 3 2 2 3 4 4 4 5 5 5 5 5 7 10 12
14 16 18 20 20 20 20 20 21 21 21 22 21 21 22 22 22 21 20 16 12 12 14 13 10 6 5 3 4 2 2 3 3 4 4 4 4 4 4 5 6 9 11 12
15 17 18 19 19 19 19 20 20 20 21 20 20 21 21 22 21 19 17 14 13 14 14 11 6 4 3 4 4 3 2 2 3 3 3 3 3 3 4 5 7 10 11 13
14 15 17 18 18 18 18 18 19 20 20 20 21 20 20 20 20 18 16 12 14 15 12 8 5 5 5 6 4 3 3 3 3 2 2 1 2 3 3 6 9 10 11 12
13 14 15 16 17 18 18 17 19 18 19 20 20 19 19 18 14 14 15 13 13 17 11 7 7 6 7 5 3 3 3 3 3 2 1 1 2 3 6 9 9 10 11 12
12 13 14 15 15 16 16 18 18 16 18 18 18 18 17 15 13 12 12 16 18 17 10 7 9 8 8 4 3 3 3 3 2 0 1 2 3 5 7 9 9 10 12 14
12 12 13 14 14 12 14 16 16 16 16 15 18 19 15 12 13 14 14 15 18 16 11 9 8 8 6 4 3 3 2 2 1 0 2 3 6 7 8 9 10 11 11 11
10 10 10 11 10 11 11 12 12 12 13 14 15 15 14 13 14 13 12 15 18 16 12 10 9 7 5 5 4 3 2 1 2 2 4 6 8 8 8 9 12 10 10 10
9 8 7 9 9 10 11 11 12 12 12 13 15 14 14 14 14 15 16 13 13 12 11 10 10 8 7 7 5 4 3 3 3 4 6 7 7 8 10 11 9 9 9 9
Wind_Direction
286 297 291 302 319 318 308 316 314 333 355 46 6 338 325 316 312 307 303 298 293 292 293 295 296 295 293 292 291 290 288 287 287 289 295 299 306 310 307 297 281 263 253 247
276 283 233 112 23 355 351 340 332 323 346 28 335 319 307 305 303 301 301 302 301 301 302 302 302 300 298 296 293 290 287 287 287 286 286 290 296 302 305 301 290 275 254 243
289 266 241 170 29 2 348 336 326 322 346 334 319 316 312 309 302 301 306 309 309 307 305 303 300 299 296 294 292 290 287 286 285 284 284 286 291 298 303 304 298 285 264 246
295 287 279 74 42 1 330 312 301 300 318 320 316 314 308 296 298 308 311 309 306 303 301 299 298 297 295 292 290 288 286 284 284 283 281 281 283 288 296 301 299 291 275 253
309 300 117 106 34 358 325 309 319 316 321 320 319 310 300 316 327 315 307 304 302 300 299 298 296 294 292 290 288 286 284 284 283 283 282 280 278 281 288 294 296 292 282 262
320 308 331 74 22 336 292 279 25 331 321 320 317 309 315 325 314 306 304 302 300 298 296 294 293 293 291 289 285 283 283 282 282 282 280 277 276 278 278 281 286 290 283 267
323 312 73 44 345 318 301 333 335 321 317 315 313 307 307 308 307 306 303 301 299 297 295 293 293 291 287 285 283 282 281 280 279 276 275 272 269 267 267 271 280 285 284 270
325 315 61 19 339 337 318 316 315 315 315 312 309 306 306 307 307 305 303 302 301 298 295 294 291 288 285 283 283 282 279 276 274 272 271 270 264 261 260 265 271 274 277 270
340 357 32 340 316 314 314 313 315 315 313 311 309 308 308 308 306 304 303 302 300 297 296 294 290 287 285 286 286 284 279 275 273 270 266 265 264 259 253 249 258 269 274 259
299 300 314 315 314 322 323 318 314 313 312 311 308 308 308 307 306 305 303 303 301 299 296 295 293 289 286 286 284 280 276 273 270 267 263 258 254 252 248 247 251 261 266 254
285 314 315 314 328 326 320 315 312 311 310 309 308 307 308 307 305 305 304 302 300 298 297 295 292 288 286 283 280 276 272 269 266 262 262 262 254 248 249 246 251 259 266 251
330 335 316 317 323 320 317 315 314 313 311 310 309 307 307 306 306 304 303 302 302 300 297 295 292 288 284 280 275 270 267 263 259 255 255 255 252 243 221 229 199 211 232 233
307 315 313 312 314 318 316 314 314 313 312 311 311 310 309 307 305 304 304 305 304 301 298 295 291 287 283 278 272 266 262 259 254 251 249 250 249 245 234 213 206 213 219 218
305 309 310 315 317 315 315 316 315 313 313 314 313 312 310 308 308 308 308 306 303 300 297 294 291 289 287 282 273 266 259 253 247 245 244 246 247 244 238 233 223 219 203 197
315 317 312 313 313 317 319 319 318 317 318 317 316 314 314 313 312 310 308 306 303 300 297 296 294 293 293 286 277 266 254 244 239 240 240 240 240 239 233 232 233 225 173 162
315 312 314 317 319 320 322 323 321 319 320 319 318 318 318 315 312 310 308 307 305 303 301 301 299 298 297 291 281 267 252 238 240 241 237 237 235 232 228 223 223 212 181 157
315 319 323 323 323 322 323 322 320 320 320 320 320 320 320 317 313 310 309 309 307 303 302 304 308 309 306 299 285 265 247 225 217 231 235 235 233 229 225 220 213 193 178 160
316 318 321 322 323 322 321 322 322 320 320 320 321 323 320 316 313 312 312 312 312 310 312 318 325 321 322 321 302 272 246 229 221 229 233 234 231 224 220 217 202 186 163 153
320 321 322 323 323 321 321 321 321 321 321 323 325 323 317 314 313 314 315 316 318 321 327 333 326 314 325 340 314 266 246 235 234 232 232 223 228 224 221 208 189 173 158 159
320 322 324 323 324 324 321 321 322 320 323 327 325 320 318 318 319 320 320 319 320 325 325 327 327 329 331 4 314 294 266 248 241 232 228 228 225 220 200 189 178 161 160 166
324 326 326 325 324 323 323 324 321 322 328 330 326 322 320 320 322 324 323 325 330 333 328 316 316 334 350 348 293 287 273 264 255 251 242 232 209 187 183 175 157 158 161 168
325 325 325 324 324 323 325 322 324 330 332 330 326 324 324 325 327 327 325 328 329 331 326 323 341 4 347 315 302 307 300 287 269 257 255 232 175 171 172 149 146 154 162 168
324 325 324 324 324 321 321 326 334 336 332 329 326 328 329 327 327 329 330 330 331 331 327 334 349 337 313 294 298 303 298 292 289 279 264 173 160 160 147 142 147 157 163 167
323 324 323 324 322 321 327 334 335 333 331 328 329 332 333 330 329 332 327 325 331 331 333 336 325 317 297 287 298 302 299 299 301 317 146 165 159 147 141 143 150 156 159 164
323 322 323 327 325 328 330 333 333 334 334 332 333 337 338 333 331 332 331 334 338 338 339 341 330 318 306 316 320 312 311 336 340 164 168 159 148 143 143 145 146 148 152 161
321 320 326 320 324 327 333 336 334 335 333 334 336 337 337 338 338 338 337 340 345 345 347 346 346 341 349 353 356 358 16 83 135 154 140 136 133 132 133 135 138 141 147 154
317 324 325 329 338 342 338 335 334 334 336 340 335 336 340 343 343 343 344 346 348 349 350 351 351 354 2 5 11 25 47 67 85 98 106 109 114 119 125 129 128 132 138 141